Regional Weather Roundup
Issued by NWS

Home | Current Version | Previous Version | Graphics & Text | Print | Product List | Glossary On
Versions: 1 2 3 4 5 6 7 8 9 10 11 12 13 14 15 16 17 18 19 20 21 22 23 24 25 26 27 28 29 30 31 32 33 34 35 36 37 38 39 40 41 42 43 44 45 46 47 48 49 50
000
ASUS43 KDMX 191006
RWRIA

WEATHER ROUNDUP FOR IOWA
NATIONAL WEATHER SERVICE DES MOINES IA
400 AM CST SUN NOV 19 2017

NOTE: "FAIR" INDICATES FEW OR NO CLOUDS BELOW 12,000 FEET WITH NO
SIGNIFICANT WEATHER AND/OR OBSTRUCTIONS TO VISIBILITY.

* - THESE STATIONS ARE NOT NWS STATIONS...THUS NOT UNDER NWS
QUALITY CONTROL.  THEY ALSO DO NOT REPORT WEATHER SUCH
AS PRECIPITATION OR FOG.

IAZ001>003-012>014-020>022-031>034-043>046-191100-
   NORTHWEST IOWA

CITY           SKY/WX    TMP DP  RH WIND       PRES   REMARKS
CARROLL *      CLEAR     25  18  74 NW10      30.17S WCI  15
CHEROKEE *     CLEAR     22  18  87 W5        30.16F WCI  15
DENISON *      CLEAR     23  18  80 CALM      30.20F
LE MARS *      CLEAR     23  19  86 CALM      30.16F
ORANGE CITY *  CLEAR     19  18  93 SW3       30.13F
SHELDON *      CLEAR     18  16  93 SW6       30.11F WCI   9
SIOUX CITY     CLEAR     23  19  85 CALM      30.19F
SPENCER        CLEAR     17  12  80 W3        30.13F
STORM LAKE *   CLEAR     19  16  86 W10       30.14F WCI   8
$$

IAZ055>058-069>071-079>083-090>094-191100-
   SOUTHWEST IOWA

CITY           SKY/WX    TMP DP  RH WIND       PRES   REMARKS
ATLANTIC *     CLEAR     25  19  80 NW5       30.19S WCI  19
AUDUBON *      CLEAR     23  18  80 W3        30.17F
CLARINDA *     CLEAR     27  21  80 NW5       30.24R WCI  21
COUNCIL BLFS * CLEAR     27  23  86 NW8       30.21F WCI  18
CRESTON *      CLEAR     21  18  86 NW9       30.19S WCI  11
HARLAN  *      CLEAR     23  21  93 W7        30.23S WCI  15
LAMONI         CLEAR     27  17  66 NW13      30.17R WCI  16
RED OAK *      CLEAR     25  19  80 NW5       30.22S WCI  19
SHENANDOAH *   CLEAR     25  23  93 CALM      30.24R
$$

IAZ047>049-059>061-072>074-084-191100-
   CENTRAL IOWA

CITY           SKY/WX    TMP DP  RH WIND       PRES   REMARKS
AMES           CLEAR     24  16  71 NW13      30.16R WCI  12
ANKENY *       CLEAR     25  16  68 NW14G22   30.17S WCI  13
BOONE *        CLEAR     23  16  74 NW7G13    30.14S WCI  15
CHARITON *     CLEAR     27  18  69 NW14      30.15S WCI  15
DES MOINES     PTCLDY    26  15  63 NW12      30.17R WCI  16
GRINNELL*      CLEAR     23  16  75 NW15      30.13S WCI  10
KNOXVILLE *    CLEAR     27  14  59 NW15G21   30.14S WCI  15
MARSHALLTOWN   CLEAR     22  15  75 NW16      30.12F WCI   8
NEWTON *       CLEAR     23  14  68 NW14      30.14F WCI  11
PELLA *        CLEAR     24  17  74 NW7       30.16S WCI  16
PERRY *          N/A     23  19  83 W8        30.17S WCI  14
$$

IAZ004>006-015-016-023>025-035-036-191100-
   NORTH CENTRAL IOWA

CITY           SKY/WX    TMP DP  RH WIND       PRES   REMARKS
ALGONA *       CLEAR     19  16  86 NW8       30.12F WCI   9
CLARION *      CLEAR     19  18  93 NW7       30.13F WCI  10
ESTHERVILLE    CLEAR     16  13  88 W6        30.11F WCI   7
FORT DODGE *   CLEAR     21  16  81 NW3       30.15S
MASON CITY     CLEAR     18  10  71 NW15      30.11S WCI   4
FOREST CITY *    N/A     21  12  68 NW12G18   30.11S WCI   9
WEBSTER CITY * CLEAR     21  16  79 NW13      30.13S WCI   9
IOWA FALLS *     N/A     22  16  78 NW14G20   30.13S WCI   9
$$

IAZ007>011-017>019-026>030-037>042-050>054-066-191100-
   NORTHEAST IOWA

CITY           SKY/WX    TMP DP  RH WIND       PRES   REMARKS
CEDAR RAPIDS   CLEAR     22  14  71 NW15      30.07R WCI   9
CHARLES CITY * CLEAR     19  12  73 NW10G18   30.09R WCI   8
CLINTON *      CLEAR     23  19  85 W12       30.02F WCI  12
DECORAH *      CLEAR     19  14  79 NW12      30.04R WCI   7
DUBUQUE        PTCLDY    22  15  75 NW15      30.02R WCI   9
MONTICELLO *   PTCLDY    23  16  74 NW14G24   30.05R WCI  11
OELWEIN *      CLEAR     21  16  79 NW17      30.07R WCI   7
WATERLOO       CLEAR     20  11  68 NW13      30.10S WCI   7
$$

IAZ064-065-067-068-078-191100-
   EAST CENTRAL IOWA

CITY           SKY/WX    TMP DP  RH WIND       PRES   REMARKS
DAVENPORT      CLEAR     24  16  71 NW14G21   30.07R WCI  12
IOWA CITY      CLEAR     25  14  63 NW16      30.12R WCI  12
MT. PLEASANT * CLEAR     25  15  64 NW15G21   30.11R WCI  13
MUSCATINE *    CLEAR     25  16  68 NW14      30.10R WCI  13
QUAD CITIES    CLEAR     26  16  65 NW15G21   30.06R WCI  14
$$

IAZ062-063-075>077-085>089-095>099-191100-
   SOUTHEAST IOWA

CITY           SKY/WX    TMP DP  RH WIND       PRES   REMARKS
BURLINGTON     CLEAR     26  18  71 NW9       30.08S WCI  17
FAIRFIELD *    CLEAR     25  16  68 NW12G20   30.12R WCI  14
FORT MADISON * CLEAR     27  18  69 NW14      30.10S WCI  15
KEOKUK *       CLEAR     28  16  59 NW14G23   30.10F WCI  17
OSKALOOSA *      N/A     24  16  70 NW16      30.14S WCI  11
CENTERVILLE *    N/A     27  21  80 W10       30.16R WCI  17
OTTUMWA        CLEAR     25  14  63 NW14      30.14R WCI  13
WASHINGTON *   CLEAR     25  18  74 NW12G20   30.12R WCI  14
$$

ABBREVIATIONS USED IN REMARKS
   TC - TEMPERATURES IN CELSIUS
  WCI - WIND CHILL INDEX
   HX - HEAT INDEX
  VSB - VISIBILITY
$$





USA.gov is the U.S. government's official web portal to all federal, state and local government web resources and services.